Precipitable_Water
0.61 0.60 0.60 0.60 0.60 0.59 0.59 0.60 0.60 0.56 0.54 0.54 0.52 0.51 0.51 0.52 0.53 0.54 0.57 0.57 0.57 0.59 0.60 0.60 0.61 0.62 0.61 0.63 0.63 0.65 0.65 0.53 0.46 0.40 0.36 0.36 0.45 0.48 0.45 0.43 0.40 0.42 0.49 0.44 0.41 0.35 0.27 0.26 0.22 0.25 0.23 0.22 0.21 0.18 0.20 0.21 0.23 0.21 0.16 0.15 0.14 0.15 0.15 0.17 0.17 0.18 0.20 0.20 0.20 0.22 0.23 0.22 0.21 0.25 0.25 0.25 0.22 0.21 0.24 0.41 0.57 0.73 0.72 0.76 0.82 0.90 0.97 0.99
0.61 0.57 0.56 0.55 0.55 0.55 0.55 0.58 0.60 0.59 0.56 0.57 0.57 0.55 0.54 0.52 0.50 0.50 0.50 0.52 0.54 0.55 0.57 0.59 0.60 0.61 0.62 0.61 0.65 0.63 0.57 0.48 0.39 0.38 0.36 0.47 0.56 0.56 0.56 0.51 0.45 0.43 0.45 0.35 0.35 0.33 0.27 0.24 0.24 0.23 0.22 0.19 0.26 0.18 0.20 0.17 0.21 0.15 0.13 0.13 0.10 0.13 0.15 0.18 0.17 0.18 0.18 0.18 0.20 0.21 0.22 0.21 0.20 0.22 0.23 0.21 0.20 0.20 0.23 0.37 0.52 0.58 0.71 0.79 0.83 0.85 0.88 0.92
0.56 0.51 0.49 0.50 0.51 0.52 0.54 0.53 0.53 0.55 0.56 0.57 0.57 0.56 0.56 0.56 0.56 0.54 0.52 0.50 0.49 0.49 0.49 0.51 0.57 0.60 0.60 0.62 0.61 0.64 0.55 0.38 0.35 0.27 0.37 0.61 0.57 0.54 0.59 0.59 0.50 0.46 0.41 0.33 0.39 0.37 0.31 0.28 0.26 0.23 0.22 0.19 0.22 0.17 0.19 0.17 0.17 0.16 0.13 0.10 0.10 0.13 0.14 0.15 0.16 0.16 0.17 0.17 0.17 0.17 0.18 0.18 0.18 0.19 0.21 0.20 0.20 0.20 0.20 0.31 0.45 0.46 0.54 0.65 0.74 0.85 0.89 0.91
0.49 0.47 0.47 0.47 0.47 0.47 0.46 0.49 0.49 0.50 0.51 0.51 0.52 0.54 0.55 0.56 0.56 0.56 0.57 0.55 0.53 0.51 0.48 0.48 0.51 0.56 0.59 0.60 0.65 0.62 0.48 0.37 0.23 0.26 0.51 0.56 0.56 0.53 0.55 0.61 0.54 0.49 0.44 0.39 0.42 0.37 0.36 0.32 0.29 0.25 0.21 0.19 0.21 0.22 0.18 0.19 0.15 0.16 0.15 0.10 0.10 0.13 0.12 0.14 0.15 0.14 0.14 0.14 0.13 0.14 0.15 0.15 0.16 0.17 0.18 0.18 0.19 0.19 0.21 0.38 0.32 0.43 0.55 0.65 0.75 0.80 0.88 0.89
0.48 0.49 0.49 0.49 0.50 0.50 0.49 0.48 0.47 0.47 0.48 0.49 0.49 0.51 0.52 0.53 0.52 0.53 0.54 0.56 0.55 0.55 0.52 0.51 0.50 0.51 0.56 0.61 0.60 0.61 0.43 0.20 0.20 0.41 0.52 0.53 0.54 0.52 0.54 0.56 0.58 0.48 0.41 0.42 0.41 0.37 0.34 0.31 0.28 0.24 0.21 0.17 0.20 0.20 0.19 0.21 0.20 0.19 0.12 0.13 0.14 0.14 0.13 0.14 0.14 0.14 0.14 0.14 0.13 0.13 0.12 0.12 0.15 0.15 0.15 0.16 0.16 0.17 0.21 0.32 0.50 0.50 0.60 0.62 0.69 0.81 0.89 0.85
0.49 0.49 0.49 0.49 0.49 0.49 0.49 0.48 0.49 0.48 0.46 0.45 0.47 0.49 0.50 0.50 0.51 0.50 0.51 0.52 0.55 0.54 0.53 0.51 0.51 0.52 0.55 0.58 0.58 0.53 0.36 0.11 0.40 0.43 0.53 0.54 0.53 0.51 0.52 0.53 0.64 0.52 0.47 0.39 0.36 0.35 0.32 0.29 0.27 0.20 0.19 0.18 0.17 0.16 0.19 0.21 0.24 0.14 0.16 0.16 0.17 0.17 0.14 0.15 0.15 0.15 0.15 0.13 0.13 0.12 0.13 0.14 0.14 0.14 0.15 0.16 0.16 0.18 0.22 0.30 0.55 0.62 0.62 0.64 0.71 0.76 0.77 0.81
0.50 0.50 0.50 0.49 0.49 0.49 0.48 0.49 0.48 0.48 0.48 0.47 0.45 0.45 0.45 0.46 0.47 0.49 0.49 0.50 0.50 0.50 0.50 0.51 0.51 0.50 0.52 0.56 0.54 0.49 0.35 0.26 0.41 0.53 0.54 0.55 0.54 0.52 0.51 0.50 0.61 0.61 0.47 0.38 0.35 0.33 0.32 0.27 0.25 0.21 0.18 0.17 0.17 0.17 0.20 0.20 0.23 0.20 0.15 0.19 0.18 0.19 0.17 0.17 0.17 0.16 0.15 0.14 0.13 0.13 0.15 0.13 0.13 0.12 0.16 0.15 0.17 0.19 0.21 0.27 0.50 0.68 0.75 0.78 0.72 0.72 0.69 0.77
0.49 0.49 0.49 0.50 0.50 0.52 0.53 0.52 0.51 0.49 0.48 0.48 0.48 0.47 0.46 0.47 0.46 0.45 0.46 0.47 0.47 0.48 0.48 0.49 0.50 0.50 0.50 0.46 0.40 0.34 0.34 0.27 0.36 0.51 0.56 0.56 0.54 0.53 0.51 0.48 0.47 0.51 0.51 0.39 0.35 0.32 0.33 0.27 0.23 0.23 0.19 0.16 0.17 0.17 0.18 0.19 0.20 0.19 0.18 0.20 0.21 0.21 0.20 0.19 0.19 0.18 0.18 0.16 0.16 0.16 0.14 0.12 0.13 0.14 0.16 0.16 0.18 0.20 0.23 0.41 0.61 0.71 0.73 0.75 0.71 0.73 0.79 0.84
0.50 0.50 0.49 0.51 0.53 0.53 0.54 0.55 0.53 0.52 0.50 0.49 0.49 0.49 0.48 0.46 0.45 0.45 0.45 0.44 0.45 0.45 0.47 0.48 0.48 0.50 0.51 0.41 0.35 0.30 0.26 0.31 0.41 0.49 0.50 0.52 0.54 0.54 0.53 0.44 0.47 0.43 0.43 0.45 0.42 0.36 0.32 0.28 0.27 0.23 0.16 0.17 0.19 0.17 0.18 0.17 0.15 0.20 0.20 0.22 0.21 0.21 0.22 0.21 0.19 0.19 0.19 0.18 0.18 0.16 0.14 0.13 0.15 0.17 0.16 0.17 0.19 0.23 0.36 0.50 0.60 0.66 0.67 0.68 0.70 0.73 0.76 0.82
0.50 0.50 0.51 0.51 0.54 0.53 0.54 0.54 0.55 0.52 0.51 0.50 0.48 0.48 0.49 0.48 0.47 0.47 0.46 0.45 0.45 0.45 0.45 0.47 0.46 0.49 0.44 0.33 0.30 0.21 0.30 0.40 0.44 0.48 0.55 0.57 0.56 0.53 0.50 0.49 0.47 0.43 0.39 0.41 0.43 0.37 0.32 0.29 0.26 0.26 0.23 0.20 0.20 0.18 0.20 0.18 0.16 0.20 0.20 0.22 0.21 0.21 0.22 0.22 0.20 0.18 0.19 0.19 0.19 0.16 0.15 0.14 0.17 0.17 0.14 0.18 0.20 0.38 0.41 0.50 0.68 0.63 0.62 0.69 0.74 0.83 0.91 0.90
0.52 0.52 0.51 0.52 0.53 0.55 0.56 0.55 0.55 0.54 0.52 0.52 0.51 0.49 0.48 0.47 0.48 0.47 0.47 0.46 0.46 0.46 0.46 0.46 0.48 0.46 0.37 0.34 0.22 0.18 0.31 0.34 0.41 0.45 0.50 0.57 0.55 0.50 0.47 0.49 0.48 0.43 0.41 0.41 0.39 0.42 0.36 0.32 0.31 0.29 0.25 0.19 0.20 0.18 0.19 0.19 0.21 0.20 0.20 0.20 0.20 0.21 0.21 0.22 0.21 0.20 0.20 0.18 0.19 0.18 0.16 0.17 0.18 0.18 0.15 0.18 0.21 0.38 0.38 0.49 0.61 0.64 0.67 0.74 0.82 0.89 0.94 0.92
0.55 0.55 0.55 0.55 0.53 0.52 0.53 0.55 0.56 0.56 0.54 0.54 0.53 0.52 0.50 0.49 0.48 0.47 0.47 0.46 0.45 0.46 0.45 0.45 0.45 0.45 0.39 0.31 0.24 0.17 0.34 0.43 0.40 0.43 0.47 0.51 0.51 0.52 0.52 0.51 0.50 0.46 0.42 0.37 0.38 0.42 0.42 0.37 0.33 0.29 0.19 0.22 0.16 0.20 0.18 0.22 0.21 0.20 0.21 0.17 0.17 0.19 0.18 0.19 0.19 0.20 0.20 0.17 0.19 0.20 0.17 0.15 0.15 0.14 0.16 0.18 0.22 0.39 0.42 0.45 0.51 0.60 0.72 0.81 0.88 0.94 0.93 0.89
0.57 0.58 0.58 0.57 0.57 0.57 0.56 0.57 0.57 0.57 0.59 0.58 0.56 0.53 0.51 0.49 0.48 0.48 0.47 0.46 0.46 0.45 0.45 0.45 0.47 0.46 0.36 0.20 0.17 0.22 0.30 0.31 0.27 0.27 0.30 0.35 0.42 0.50 0.53 0.54 0.52 0.50 0.47 0.41 0.38 0.41 0.42 0.40 0.37 0.27 0.28 0.26 0.21 0.16 0.22 0.24 0.21 0.21 0.19 0.17 0.16 0.16 0.15 0.17 0.19 0.20 0.19 0.18 0.19 0.19 0.11 0.10 0.12 0.15 0.18 0.20 0.24 0.43 0.45 0.44 0.52 0.63 0.75 0.82 0.86 0.84 0.88 0.94
0.57 0.58 0.58 0.59 0.59 0.58 0.58 0.59 0.59 0.60 0.60 0.61 0.60 0.58 0.55 0.50 0.49 0.47 0.46 0.45 0.47 0.46 0.46 0.46 0.45 0.38 0.31 0.19 0.20 0.25 0.29 0.32 0.34 0.31 0.28 0.36 0.41 0.43 0.48 0.51 0.52 0.50 0.50 0.44 0.43 0.44 0.42 0.42 0.38 0.33 0.30 0.26 0.22 0.29 0.23 0.22 0.22 0.16 0.17 0.18 0.14 0.13 0.12 0.17 0.17 0.17 0.17 0.19 0.19 0.19 0.12 0.11 0.13 0.16 0.19 0.20 0.23 0.35 0.38 0.43 0.51 0.63 0.72 0.78 0.82 0.82 0.81 0.84
0.57 0.57 0.57 0.57 0.57 0.57 0.58 0.59 0.59 0.59 0.60 0.60 0.61 0.60 0.56 0.52 0.50 0.47 0.45 0.43 0.44 0.45 0.44 0.47 0.47 0.36 0.24 0.19 0.27 0.28 0.34 0.39 0.29 0.28 0.35 0.32 0.35 0.38 0.41 0.47 0.48 0.49 0.48 0.46 0.43 0.44 0.43 0.40 0.35 0.29 0.24 0.27 0.27 0.24 0.19 0.19 0.19 0.18 0.14 0.12 0.14 0.12 0.12 0.16 0.18 0.17 0.14 0.17 0.19 0.18 0.13 0.12 0.13 0.16 0.19 0.20 0.21 0.32 0.32 0.44 0.53 0.60 0.67 0.73 0.77 0.77 0.78 0.79
0.57 0.57 0.57 0.57 0.56 0.56 0.57 0.58 0.58 0.60 0.60 0.61 0.61 0.60 0.56 0.53 0.50 0.48 0.47 0.43 0.45 0.45 0.48 0.39 0.37 0.34 0.24 0.15 0.18 0.37 0.33 0.25 0.26 0.36 0.43 0.41 0.40 0.38 0.44 0.46 0.49 0.49 0.49 0.46 0.48 0.44 0.41 0.39 0.30 0.28 0.26 0.24 0.21 0.20 0.18 0.17 0.17 0.18 0.14 0.12 0.12 0.13 0.13 0.14 0.16 0.17 0.17 0.17 0.17 0.16 0.13 0.14 0.13 0.16 0.19 0.21 0.20 0.22 0.27 0.41 0.53 0.58 0.61 0.65 0.70 0.73 0.77 0.80
0.57 0.57 0.56 0.56 0.56 0.57 0.57 0.58 0.58 0.59 0.60 0.60 0.61 0.60 0.55 0.52 0.50 0.48 0.47 0.45 0.45 0.49 0.45 0.34 0.40 0.42 0.18 0.26 0.39 0.23 0.21 0.29 0.37 0.36 0.40 0.45 0.43 0.44 0.45 0.46 0.45 0.45 0.47 0.46 0.44 0.42 0.38 0.33 0.32 0.29 0.28 0.21 0.20 0.20 0.16 0.13 0.13 0.14 0.15 0.13 0.14 0.12 0.13 0.12 0.16 0.17 0.17 0.17 0.14 0.17 0.15 0.15 0.15 0.16 0.19 0.21 0.20 0.23 0.26 0.36 0.50 0.57 0.60 0.62 0.66 0.70 0.72 0.73
0.56 0.56 0.56 0.56 0.57 0.57 0.57 0.57 0.56 0.57 0.59 0.61 0.59 0.57 0.52 0.50 0.51 0.49 0.45 0.45 0.48 0.47 0.46 0.51 0.45 0.35 0.23 0.31 0.20 0.20 0.31 0.28 0.32 0.35 0.35 0.38 0.41 0.44 0.46 0.43 0.46 0.45 0.43 0.39 0.41 0.33 0.35 0.29 0.30 0.22 0.22 0.20 0.19 0.17 0.14 0.10 0.12 0.13 0.13 0.13 0.13 0.14 0.14 0.13 0.13 0.16 0.17 0.17 0.14 0.15 0.15 0.16 0.16 0.16 0.18 0.20 0.21 0.23 0.26 0.34 0.47 0.54 0.59 0.62 0.63 0.67 0.70 0.68
0.54 0.53 0.55 0.55 0.56 0.56 0.56 0.57 0.57 0.59 0.59 0.60 0.58 0.56 0.53 0.52 0.56 0.54 0.46 0.46 0.37 0.31 0.25 0.27 0.30 0.15 0.09 0.23 0.30 0.27 0.28 0.33 0.34 0.34 0.32 0.33 0.40 0.46 0.49 0.51 0.49 0.42 0.35 0.32 0.31 0.31 0.32 0.28 0.28 0.22 0.17 0.17 0.16 0.17 0.16 0.16 0.16 0.15 0.15 0.13 0.13 0.12 0.13 0.13 0.15 0.18 0.17 0.16 0.14 0.14 0.14 0.15 0.15 0.16 0.18 0.20 0.22 0.23 0.27 0.36 0.44 0.53 0.58 0.58 0.57 0.61 0.64 0.61
0.52 0.53 0.54 0.55 0.56 0.57 0.57 0.58 0.58 0.59 0.61 0.57 0.52 0.47 0.43 0.36 0.34 0.32 0.47 0.45 0.36 0.32 0.30 0.32 0.36 0.31 0.28 0.24 0.23 0.25 0.32 0.33 0.26 0.29 0.34 0.37 0.40 0.42 0.44 0.47 0.44 0.43 0.35 0.27 0.29 0.29 0.31 0.23 0.19 0.17 0.17 0.18 0.18 0.19 0.19 0.20 0.18 0.17 0.17 0.15 0.13 0.13 0.14 0.15 0.16 0.17 0.19 0.16 0.15 0.15 0.15 0.16 0.16 0.16 0.17 0.18 0.21 0.25 0.31 0.33 0.40 0.49 0.53 0.53 0.53 0.55 0.56 0.56
0.53 0.52 0.54 0.55 0.56 0.56 0.57 0.58 0.59 0.60 0.59 0.56 0.49 0.39 0.28 0.32 0.26 0.25 0.34 0.35 0.38 0.39 0.35 0.33 0.33 0.30 0.25 0.26 0.27 0.25 0.22 0.22 0.29 0.29 0.34 0.42 0.37 0.39 0.37 0.42 0.38 0.32 0.33 0.32 0.29 0.32 0.30 0.22 0.19 0.21 0.21 0.20 0.19 0.20 0.21 0.20 0.19 0.17 0.16 0.15 0.14 0.14 0.13 0.16 0.15 0.17 0.19 0.16 0.15 0.16 0.16 0.16 0.16 0.17 0.17 0.19 0.21 0.22 0.26 0.31 0.38 0.45 0.50 0.50 0.47 0.48 0.52 0.62
0.53 0.53 0.54 0.54 0.55 0.56 0.57 0.57 0.59 0.60 0.59 0.53 0.44 0.35 0.36 0.40 0.45 0.49 0.42 0.26 0.32 0.36 0.36 0.34 0.36 0.32 0.34 0.32 0.28 0.33 0.31 0.21 0.20 0.25 0.36 0.37 0.35 0.31 0.35 0.36 0.33 0.29 0.34 0.34 0.30 0.26 0.23 0.19 0.21 0.25 0.25 0.24 0.22 0.20 0.21 0.19 0.18 0.18 0.16 0.15 0.14 0.14 0.15 0.17 0.17 0.18 0.18 0.17 0.16 0.17 0.15 0.16 0.17 0.17 0.17 0.19 0.20 0.22 0.28 0.28 0.32 0.38 0.45 0.47 0.46 0.47 0.55 0.64
0.55 0.55 0.55 0.54 0.54 0.54 0.55 0.57 0.58 0.58 0.52 0.45 0.38 0.36 0.36 0.47 0.53 0.56 0.47 0.34 0.25 0.30 0.28 0.28 0.27 0.27 0.27 0.30 0.30 0.34 0.22 0.18 0.15 0.23 0.33 0.36 0.34 0.32 0.35 0.33 0.32 0.32 0.33 0.32 0.25 0.22 0.20 0.22 0.26 0.28 0.26 0.23 0.21 0.21 0.19 0.19 0.19 0.17 0.16 0.15 0.13 0.15 0.14 0.13 0.16 0.17 0.18 0.17 0.16 0.16 0.15 0.16 0.17 0.18 0.19 0.23 0.24 0.26 0.32 0.33 0.33 0.35 0.36 0.39 0.40 0.45 0.50 0.56
0.55 0.54 0.53 0.54 0.54 0.55 0.57 0.57 0.57 0.51 0.46 0.44 0.40 0.38 0.47 0.51 0.53 0.53 0.41 0.24 0.18 0.21 0.25 0.26 0.29 0.29 0.28 0.25 0.33 0.28 0.21 0.20 0.21 0.20 0.36 0.35 0.30 0.36 0.35 0.34 0.31 0.32 0.29 0.30 0.27 0.24 0.21 0.25 0.30 0.29 0.27 0.24 0.20 0.20 0.19 0.18 0.16 0.18 0.17 0.15 0.15 0.14 0.15 0.15 0.15 0.17 0.18 0.18 0.18 0.17 0.15 0.15 0.16 0.15 0.17 0.24 0.32 0.29 0.31 0.35 0.41 0.45 0.42 0.38 0.43 0.52 0.56 0.53
0.55 0.54 0.53 0.54 0.53 0.57 0.58 0.58 0.46 0.42 0.47 0.42 0.41 0.49 0.51 0.51 0.53 0.55 0.38 0.25 0.21 0.18 0.30 0.30 0.34 0.32 0.33 0.41 0.36 0.24 0.23 0.23 0.20 0.27 0.38 0.37 0.33 0.35 0.31 0.38 0.34 0.28 0.29 0.31 0.30 0.26 0.25 0.28 0.30 0.28 0.26 0.25 0.21 0.19 0.18 0.18 0.15 0.16 0.17 0.16 0.16 0.16 0.16 0.16 0.17 0.16 0.15 0.15 0.17 0.16 0.12 0.12 0.14 0.15 0.15 0.24 0.27 0.26 0.30 0.30 0.32 0.35 0.41 0.47 0.46 0.45 0.53 0.62
0.55 0.54 0.54 0.53 0.54 0.56 0.59 0.45 0.41 0.46 0.42 0.36 0.42 0.51 0.52 0.52 0.54 0.53 0.33 0.18 0.10 0.13 0.24 0.20 0.36 0.26 0.39 0.31 0.33 0.26 0.26 0.16 0.23 0.31 0.35 0.39 0.43 0.38 0.37 0.34 0.34 0.26 0.30 0.31 0.29 0.27 0.26 0.29 0.29 0.26 0.26 0.25 0.22 0.20 0.20 0.20 0.16 0.15 0.15 0.18 0.17 0.17 0.17 0.17 0.16 0.15 0.13 0.12 0.16 0.17 0.12 0.10 0.14 0.14 0.16 0.21 0.23 0.23 0.30 0.30 0.31 0.37 0.42 0.45 0.44 0.47 0.51 0.58
0.55 0.54 0.53 0.53 0.55 0.58 0.44 0.35 0.50 0.48 0.35 0.36 0.49 0.52 0.54 0.54 0.57 0.49 0.24 0.13 0.09 0.27 0.19 0.36 0.34 0.32 0.40 0.37 0.33 0.27 0.10 0.11 0.18 0.32 0.35 0.41 0.36 0.44 0.31 0.30 0.33 0.34 0.35 0.35 0.30 0.24 0.27 0.26 0.27 0.28 0.26 0.24 0.22 0.19 0.21 0.20 0.17 0.14 0.18 0.18 0.17 0.17 0.17 0.16 0.16 0.15 0.14 0.17 0.17 0.17 0.15 0.11 0.11 0.13 0.17 0.23 0.22 0.22 0.26 0.29 0.33 0.38 0.41 0.42 0.45 0.50 0.54 0.63
0.55 0.54 0.53 0.53 0.55 0.57 0.47 0.49 0.46 0.38 0.37 0.46 0.52 0.54 0.53 0.56 0.57 0.48 0.25 0.11 0.10 0.30 0.25 0.33 0.40 0.53 0.40 0.40 0.37 0.24 0.14 0.26 0.14 0.25 0.35 0.42 0.42 0.38 0.33 0.29 0.30 0.28 0.31 0.31 0.20 0.25 0.27 0.24 0.25 0.25 0.26 0.24 0.21 0.21 0.23 0.22 0.18 0.17 0.18 0.18 0.16 0.17 0.18 0.17 0.16 0.15 0.15 0.15 0.12 0.14 0.16 0.12 0.10 0.14 0.27 0.28 0.20 0.23 0.24 0.28 0.31 0.36 0.40 0.41 0.47 0.55 0.61 0.69
0.56 0.55 0.54 0.55 0.56 0.57 0.57 0.49 0.44 0.37 0.47 0.53 0.55 0.54 0.55 0.53 0.48 0.30 0.20 0.11 0.25 0.28 0.49 0.30 0.56 0.46 0.44 0.45 0.32 0.30 0.23 0.28 0.20 0.31 0.39 0.40 0.41 0.38 0.29 0.32 0.32 0.31 0.31 0.29 0.24 0.26 0.27 0.25 0.25 0.27 0.25 0.22 0.25 0.26 0.24 0.23 0.18 0.19 0.20 0.18 0.18 0.19 0.19 0.18 0.17 0.16 0.15 0.13 0.10 0.12 0.15 0.11 0.10 0.13 0.19 0.32 0.25 0.20 0.22 0.26 0.29 0.34 0.35 0.39 0.49 0.58 0.65 0.73
0.57 0.56 0.55 0.56 0.56 0.54 0.52 0.53 0.45 0.49 0.54 0.56 0.56 0.56 0.57 0.51 0.36 0.22 0.15 0.10 0.32 0.20 0.35 0.38 0.37 0.33 0.40 0.34 0.30 0.30 0.23 0.26 0.30 0.34 0.37 0.32 0.35 0.39 0.37 0.39 0.32 0.29 0.27 0.29 0.28 0.28 0.28 0.28 0.28 0.26 0.24 0.26 0.27 0.27 0.26 0.24 0.22 0.21 0.19 0.17 0.17 0.18 0.18 0.18 0.17 0.16 0.15 0.11 0.11 0.14 0.15 0.14 0.10 0.12 0.17 0.20 0.22 0.21 0.22 0.27 0.31 0.36 0.42 0.50 0.57 0.61 0.67 0.73
0.58 0.57 0.56 0.59 0.50 0.54 0.53 0.42 0.46 0.54 0.57 0.58 0.59 0.55 0.50 0.41 0.25 0.18 0.12 0.16 0.31 0.27 0.38 0.35 0.32 0.41 0.33 0.29 0.24 0.28 0.26 0.28 0.29 0.32 0.30 0.34 0.33 0.35 0.36 0.31 0.35 0.28 0.26 0.26 0.25 0.27 0.27 0.27 0.24 0.25 0.27 0.28 0.29 0.25 0.27 0.26 0.24 0.20 0.17 0.16 0.16 0.16 0.17 0.16 0.15 0.16 0.12 0.10 0.12 0.15 0.16 0.16 0.10 0.11 0.18 0.24 0.26 0.26 0.22 0.20 0.24 0.30 0.35 0.45 0.53 0.62 0.71 0.77
0.59 0.59 0.59 0.57 0.58 0.63 0.46 0.41 0.51 0.57 0.58 0.61 0.57 0.48 0.38 0.21 0.26 0.16 0.15 0.37 0.18 0.26 0.27 0.27 0.36 0.34 0.33 0.34 0.29 0.26 0.23 0.27 0.30 0.30 0.27 0.27 0.27 0.27 0.29 0.24 0.26 0.19 0.19 0.20 0.19 0.25 0.24 0.24 0.25 0.26 0.27 0.25 0.24 0.24 0.24 0.25 0.23 0.20 0.16 0.15 0.13 0.12 0.13 0.11 0.13 0.11 0.11 0.10 0.13 0.16 0.17 0.14 0.13 0.13 0.15 0.20 0.24 0.27 0.29 0.25 0.24 0.27 0.33 0.47 0.55 0.65 0.72 0.79
0.62 0.61 0.60 0.61 0.61 0.56 0.58 0.60 0.60 0.59 0.61 0.60 0.52 0.45 0.30 0.20 0.13 0.20 0.21 0.26 0.20 0.32 0.28 0.38 0.32 0.34 0.33 0.30 0.26 0.27 0.31 0.24 0.30 0.29 0.31 0.28 0.27 0.27 0.30 0.29 0.28 0.24 0.16 0.20 0.20 0.21 0.21 0.25 0.25 0.25 0.26 0.25 0.23 0.18 0.19 0.19 0.21 0.19 0.15 0.13 0.12 0.11 0.10 0.09 0.10 0.12 0.12 0.14 0.16 0.15 0.18 0.13 0.15 0.16 0.16 0.17 0.21 0.26 0.28 0.29 0.31 0.30 0.35 0.43 0.55 0.65 0.72 0.79
0.65 0.64 0.57 0.61 0.61 0.61 0.63 0.64 0.60 0.62 0.58 0.56 0.45 0.36 0.29 0.18 0.16 0.28 0.25 0.26 0.26 0.37 0.37 0.34 0.37 0.34 0.31 0.25 0.25 0.28 0.22 0.29 0.28 0.27 0.29 0.25 0.26 0.24 0.27 0.30 0.30 0.25 0.23 0.21 0.19 0.19 0.17 0.17 0.21 0.23 0.20 0.25 0.22 0.20 0.18 0.17 0.18 0.18 0.17 0.15 0.13 0.12 0.11 0.09 0.10 0.09 0.10 0.12 0.14 0.17 0.14 0.12 0.12 0.14 0.18 0.18 0.20 0.26 0.34 0.42 0.45 0.46 0.49 0.55 0.65 0.71 0.76 0.80
0.66 0.64 0.62 0.61 0.61 0.64 0.66 0.66 0.63 0.66 0.59 0.51 0.40 0.31 0.21 0.19 0.23 0.22 0.25 0.28 0.32 0.36 0.33 0.39 0.33 0.29 0.27 0.28 0.29 0.28 0.29 0.23 0.29 0.28 0.26 0.24 0.22 0.24 0.24 0.25 0.28 0.28 0.26 0.19 0.21 0.21 0.18 0.17 0.21 0.25 0.24 0.25 0.22 0.23 0.22 0.18 0.17 0.19 0.18 0.17 0.14 0.13 0.16 0.11 0.13 0.13 0.13 0.13 0.12 0.14 0.13 0.16 0.15 0.21 0.26 0.26 0.29 0.36 0.43 0.46 0.49 0.49 0.53 0.59 0.64 0.69 0.74 0.79
0.63 0.60 0.62 0.56 0.56 0.63 0.68 0.67 0.68 0.67 0.57 0.46 0.34 0.26 0.22 0.25 0.21 0.30 0.27 0.38 0.36 0.32 0.33 0.35 0.33 0.26 0.24 0.27 0.28 0.26 0.32 0.26 0.26 0.27 0.24 0.24 0.25 0.24 0.28 0.28 0.27 0.28 0.25 0.19 0.21 0.18 0.20 0.18 0.22 0.23 0.25 0.24 0.23 0.24 0.22 0.20 0.12 0.16 0.17 0.13 0.14 0.18 0.17 0.14 0.15 0.19 0.16 0.14 0.11 0.17 0.15 0.16 0.21 0.22 0.28 0.26 0.29 0.36 0.42 0.47 0.48 0.50 0.54 0.59 0.63 0.70 0.74 0.79
0.57 0.59 0.51 0.56 0.58 0.65 0.68 0.68 0.68 0.64 0.56 0.43 0.31 0.24 0.29 0.31 0.34 0.33 0.36 0.34 0.35 0.37 0.33 0.24 0.26 0.26 0.24 0.22 0.24 0.26 0.28 0.32 0.26 0.25 0.20 0.24 0.22 0.26 0.27 0.28 0.31 0.29 0.29 0.26 0.21 0.25 0.18 0.18 0.23 0.21 0.20 0.24 0.26 0.25 0.24 0.21 0.19 0.17 0.14 0.15 0.18 0.20 0.19 0.15 0.12 0.16 0.14 0.11 0.11 0.15 0.13 0.15 0.16 0.14 0.30 0.28 0.27 0.34 0.38 0.43 0.47 0.51 0.56 0.57 0.65 0.72 0.75 0.80
0.56 0.55 0.55 0.55 0.60 0.67 0.69 0.68 0.66 0.60 0.50 0.40 0.29 0.30 0.37 0.31 0.40 0.37 0.40 0.39 0.39 0.39 0.32 0.28 0.28 0.33 0.24 0.22 0.21 0.26 0.27 0.26 0.23 0.24 0.21 0.23 0.20 0.29 0.27 0.27 0.31 0.29 0.30 0.31 0.24 0.23 0.24 0.18 0.20 0.22 0.21 0.23 0.26 0.26 0.23 0.22 0.21 0.16 0.15 0.19 0.14 0.12 0.12 0.15 0.14 0.12 0.12 0.11 0.12 0.14 0.15 0.17 0.18 0.18 0.23 0.24 0.25 0.30 0.36 0.43 0.45 0.47 0.53 0.59 0.67 0.74 0.80 0.87
0.57 0.53 0.44 0.54 0.64 0.67 0.66 0.67 0.62 0.54 0.44 0.33 0.30 0.28 0.35 0.37 0.42 0.39 0.41 0.42 0.42 0.37 0.30 0.32 0.27 0.30 0.29 0.24 0.27 0.30 0.29 0.21 0.25 0.22 0.20 0.22 0.20 0.26 0.27 0.29 0.28 0.31 0.31 0.31 0.26 0.26 0.26 0.18 0.18 0.23 0.22 0.24 0.24 0.23 0.17 0.17 0.20 0.20 0.20 0.17 0.18 0.17 0.14 0.13 0.13 0.17 0.16 0.13 0.12 0.13 0.14 0.14 0.21 0.22 0.25 0.21 0.25 0.28 0.34 0.38 0.39 0.44 0.51 0.58 0.63 0.70 0.75 0.80
0.50 0.44 0.41 0.57 0.64 0.67 0.68 0.63 0.54 0.49 0.40 0.29 0.32 0.33 0.41 0.37 0.41 0.44 0.46 0.44 0.39 0.37 0.33 0.32 0.33 0.27 0.31 0.30 0.32 0.27 0.30 0.29 0.24 0.24 0.22 0.23 0.22 0.28 0.28 0.31 0.28 0.29 0.31 0.31 0.28 0.29 0.23 0.28 0.17 0.20 0.23 0.24 0.19 0.20 0.17 0.17 0.16 0.17 0.16 0.15 0.16 0.15 0.19 0.16 0.17 0.16 0.15 0.14 0.13 0.13 0.12 0.15 0.24 0.34 0.33 0.30 0.29 0.31 0.32 0.32 0.38 0.46 0.56 0.61 0.64 0.68 0.73 0.78
0.56 0.44 0.43 0.60 0.63 0.66 0.64 0.53 0.42 0.38 0.36 0.39 0.41 0.38 0.41 0.38 0.43 0.45 0.49 0.50 0.45 0.50 0.40 0.36 0.32 0.28 0.30 0.28 0.27 0.33 0.29 0.31 0.27 0.24 0.23 0.23 0.22 0.20 0.28 0.30 0.30 0.28 0.31 0.30 0.28 0.28 0.24 0.23 0.20 0.20 0.20 0.19 0.18 0.21 0.20 0.19 0.18 0.17 0.16 0.15 0.15 0.14 0.14 0.12 0.13 0.18 0.18 0.15 0.14 0.13 0.13 0.17 0.28 0.45 0.43 0.38 0.39 0.36 0.35 0.33 0.37 0.48 0.57 0.64 0.70 0.74 0.75 0.79
0.46 0.33 0.40 0.60 0.67 0.65 0.52 0.38 0.38 0.43 0.39 0.35 0.34 0.41 0.38 0.47 0.43 0.44 0.47 0.50 0.48 0.43 0.49 0.40 0.38 0.34 0.32 0.32 0.33 0.30 0.32 0.30 0.29 0.26 0.25 0.21 0.24 0.25 0.27 0.32 0.31 0.31 0.28 0.25 0.25 0.29 0.28 0.28 0.24 0.19 0.19 0.19 0.21 0.22 0.23 0.22 0.21 0.18 0.17 0.16 0.17 0.16 0.17 0.15 0.12 0.15 0.18 0.18 0.19 0.17 0.14 0.16 0.37 0.45 0.46 0.44 0.45 0.48 0.48 0.46 0.47 0.55 0.61 0.67 0.73 0.77 0.81 0.84
0.45 0.39 0.56 0.59 0.65 0.60 0.47 0.35 0.39 0.37 0.35 0.40 0.47 0.46 0.48 0.45 0.43 0.46 0.44 0.46 0.43 0.46 0.41 0.37 0.35 0.34 0.36 0.37 0.36 0.34 0.33 0.28 0.29 0.25 0.28 0.27 0.26 0.27 0.30 0.31 0.32 0.31 0.30 0.28 0.30 0.30 0.32 0.25 0.22 0.21 0.22 0.24 0.24 0.24 0.24 0.23 0.21 0.18 0.18 0.19 0.18 0.16 0.16 0.17 0.16 0.18 0.16 0.18 0.17 0.16 0.14 0.21 0.35 0.46 0.44 0.46 0.50 0.54 0.56 0.57 0.57 0.61 0.68 0.72 0.75 0.76 0.79 0.84
0.48 0.46 0.48 0.58 0.65 0.59 0.42 0.27 0.28 0.31 0.35 0.41 0.41 0.41 0.48 0.45 0.44 0.43 0.43 0.45 0.43 0.40 0.36 0.35 0.38 0.43 0.38 0.45 0.40 0.32 0.36 0.24 0.29 0.31 0.27 0.33 0.30 0.36 0.32 0.30 0.32 0.30 0.29 0.27 0.26 0.32 0.25 0.26 0.24 0.20 0.19 0.20 0.21 0.22 0.22 0.22 0.21 0.18 0.17 0.18 0.19 0.19 0.19 0.20 0.19 0.23 0.17 0.17 0.18 0.16 0.12 0.19 0.40 0.44 0.44 0.44 0.46 0.49 0.55 0.63 0.66 0.64 0.69 0.73 0.75 0.78 0.82 0.85
0.50 0.55 0.51 0.51 0.56 0.53 0.36 0.37 0.34 0.33 0.35 0.35 0.36 0.36 0.39 0.41 0.47 0.48 0.46 0.45 0.48 0.43 0.39 0.36 0.41 0.42 0.41 0.45 0.40 0.39 0.40 0.34 0.27 0.34 0.34 0.34 0.35 0.40 0.42 0.34 0.31 0.30 0.31 0.32 0.30 0.34 0.27 0.28 0.25 0.19 0.16 0.15 0.15 0.15 0.15 0.16 0.17 0.18 0.19 0.19 0.19 0.19 0.18 0.18 0.16 0.17 0.15 0.18 0.19 0.16 0.15 0.21 0.43 0.42 0.39 0.42 0.46 0.50 0.61 0.67 0.72 0.73 0.69 0.70 0.74 0.78 0.81 0.84
0.42 0.34 0.43 0.45 0.48 0.48 0.47 0.48 0.42 0.37 0.35 0.34 0.33 0.35 0.40 0.37 0.43 0.50 0.51 0.47 0.51 0.46 0.45 0.43 0.45 0.46 0.42 0.42 0.39 0.35 0.35 0.39 0.34 0.32 0.33 0.33 0.37 0.41 0.43 0.34 0.31 0.30 0.32 0.33 0.34 0.37 0.31 0.33 0.31 0.27 0.20 0.17 0.18 0.19 0.21 0.20 0.19 0.17 0.18 0.19 0.19 0.19 0.20 0.19 0.19 0.17 0.15 0.18 0.18 0.19 0.20 0.23 0.30 0.35 0.35 0.38 0.43 0.46 0.52 0.59 0.64 0.68 0.76 0.81 0.80 0.79 0.81 0.84
0.48 0.37 0.39 0.34 0.43 0.43 0.40 0.43 0.41 0.41 0.34 0.39 0.31 0.36 0.34 0.38 0.42 0.44 0.52 0.42 0.49 0.46 0.43 0.42 0.40 0.37 0.36 0.38 0.33 0.34 0.37 0.36 0.40 0.39 0.36 0.36 0.40 0.40 0.42 0.35 0.31 0.31 0.34 0.34 0.36 0.34 0.30 0.27 0.29 0.29 0.26 0.23 0.23 0.22 0.22 0.21 0.18 0.19 0.19 0.19 0.20 0.19 0.19 0.18 0.17 0.16 0.19 0.18 0.16 0.20 0.23 0.21 0.26 0.31 0.36 0.38 0.45 0.53 0.56 0.58 0.64 0.71 0.73 0.75 0.80 0.83 0.85 0.86
0.36 0.41 0.47 0.49 0.38 0.31 0.34 0.35 0.41 0.39 0.40 0.40 0.35 0.41 0.36 0.37 0.38 0.35 0.44 0.48 0.50 0.50 0.42 0.41 0.42 0.40 0.40 0.36 0.37 0.30 0.34 0.35 0.36 0.32 0.38 0.41 0.36 0.35 0.30 0.31 0.29 0.33 0.35 0.34 0.37 0.32 0.29 0.27 0.30 0.30 0.26 0.26 0.25 0.23 0.23 0.21 0.20 0.20 0.20 0.20 0.19 0.20 0.18 0.17 0.17 0.19 0.19 0.17 0.17 0.20 0.26 0.22 0.29 0.34 0.39 0.41 0.46 0.46 0.53 0.58 0.65 0.71 0.75 0.79 0.81 0.79 0.79 0.81
0.46 0.46 0.46 0.53 0.40 0.41 0.39 0.40 0.42 0.39 0.37 0.38 0.37 0.38 0.36 0.37 0.36 0.41 0.41 0.41 0.44 0.44 0.46 0.34 0.38 0.40 0.41 0.42 0.38 0.33 0.35 0.29 0.30 0.36 0.40 0.37 0.35 0.31 0.27 0.27 0.30 0.35 0.36 0.34 0.33 0.34 0.30 0.29 0.31 0.32 0.27 0.26 0.25 0.24 0.23 0.21 0.21 0.20 0.20 0.20 0.20 0.20 0.18 0.18 0.18 0.19 0.19 0.18 0.19 0.22 0.27 0.28 0.38 0.42 0.44 0.47 0.56 0.64 0.66 0.71 0.72 0.71 0.71 0.75 0.77 0.78 0.79 0.80
0.39 0.39 0.38 0.49 0.48 0.43 0.42 0.42 0.40 0.38 0.34 0.38 0.33 0.35 0.37 0.37 0.36 0.41 0.45 0.43 0.36 0.39 0.48 0.39 0.40 0.44 0.43 0.42 0.41 0.35 0.37 0.40 0.39 0.35 0.40 0.40 0.36 0.37 0.33 0.35 0.31 0.36 0.36 0.32 0.32 0.35 0.33 0.29 0.33 0.32 0.27 0.26 0.26 0.25 0.24 0.22 0.21 0.19 0.20 0.20 0.20 0.21 0.20 0.19 0.19 0.21 0.22 0.21 0.23 0.25 0.25 0.29 0.45 0.55 0.55 0.59 0.63 0.70 0.75 0.70 0.70 0.72 0.74 0.74 0.75 0.77 0.80 0.82
0.51 0.54 0.51 0.42 0.40 0.41 0.42 0.40 0.37 0.36 0.34 0.36 0.34 0.35 0.37 0.38 0.38 0.43 0.42 0.50 0.44 0.38 0.41 0.38 0.43 0.44 0.45 0.44 0.41 0.39 0.45 0.45 0.47 0.46 0.46 0.45 0.34 0.40 0.37 0.34 0.41 0.32 0.32 0.31 0.32 0.33 0.34 0.30 0.33 0.31 0.25 0.24 0.27 0.25 0.23 0.23 0.22 0.20 0.20 0.20 0.19 0.19 0.18 0.19 0.18 0.22 0.20 0.19 0.23 0.24 0.22 0.26 0.44 0.54 0.59 0.62 0.64 0.66 0.68 0.74 0.76 0.79 0.79 0.77 0.75 0.78 0.82 0.85
0.56 0.58 0.57 0.48 0.39 0.43 0.39 0.40 0.39 0.37 0.31 0.37 0.38 0.38 0.37 0.38 0.43 0.46 0.39 0.48 0.52 0.50 0.49 0.48 0.50 0.47 0.43 0.41 0.39 0.42 0.49 0.50 0.53 0.54 0.53 0.52 0.53 0.49 0.46 0.43 0.43 0.40 0.34 0.32 0.35 0.31 0.32 0.30 0.27 0.28 0.25 0.23 0.27 0.27 0.24 0.22 0.21 0.18 0.18 0.19 0.20 0.20 0.21 0.21 0.22 0.25 0.24 0.26 0.24 0.21 0.20 0.30 0.47 0.54 0.49 0.53 0.60 0.66 0.74 0.69 0.73 0.78 0.83 0.78 0.76 0.79 0.83 0.89
Wind_Speed
24 25 25 26 27 27 28 28 29 30 30 31 31 32 33 33 34 35 35 35 36 36 36 37 37 36 36 36 36 36 36 35 35 35 35 34 34 35 36 36 36 35 34 34 33 33 32 32 33 33 33 33 33 33 33 34 33 33 33 35 37 36 35 33 32 31 28 28 26 25 26 27 27 26 24 23 24 25 23 22 23 23 22 21 20 19 19 20
25 26 26 27 27 28 28 29 29 30 30 31 32 32 33 33 34 35 35 36 36 37 37 37 37 37 37 37 37 37 36 36 36 36 36 34 33 33 35 36 37 36 35 34 33 32 32 31 32 32 33 33 33 33 33 33 33 34 32 35 38 35 34 32 31 30 28 29 28 27 28 28 28 27 24 24 25 25 23 22 22 21 21 20 20 20 20 21
26 27 27 28 28 28 29 29 30 30 31 31 32 32 33 33 34 34 35 35 36 36 37 37 37 37 37 37 37 37 36 36 36 36 35 33 31 31 32 35 37 37 36 35 34 33 32 31 31 31 32 33 33 33 33 33 33 33 32 35 36 32 32 31 30 31 30 28 27 28 28 27 28 26 24 25 26 26 24 22 21 21 21 21 21 21 21 22
27 27 28 28 28 29 29 30 30 31 31 32 32 33 33 34 34 35 35 35 36 36 36 37 37 37 37 37 37 37 36 36 36 35 33 32 30 30 30 32 35 36 36 35 34 33 32 31 30 30 31 32 33 33 33 34 33 33 34 35 32 29 31 31 30 30 30 27 26 27 26 27 27 25 25 25 25 25 24 24 24 23 23 22 22 22 23 23
27 27 28 28 29 29 30 30 31 31 32 32 33 33 33 34 34 35 35 35 36 36 36 36 37 37 37 37 37 36 35 34 34 34 33 31 30 29 29 29 32 35 35 35 34 33 32 31 30 30 31 31 32 33 33 35 34 33 35 34 30 29 30 30 30 29 28 27 26 26 26 26 25 25 25 25 26 25 24 24 25 24 24 24 23 24 24 23
28 28 29 29 29 30 30 31 31 31 32 32 33 33 34 34 35 35 35 35 36 36 36 36 36 37 37 37 36 36 35 33 33 33 33 32 30 29 29 28 30 33 34 35 34 33 32 31 31 30 31 31 32 33 32 34 35 34 34 33 32 32 30 29 29 29 28 27 27 25 25 24 24 25 26 26 27 27 25 24 24 25 25 25 24 25 24 24
29 29 29 30 30 30 31 31 31 32 32 32 33 33 34 34 35 35 35 36 36 36 36 36 35 36 36 37 36 36 37 37 35 34 33 32 32 30 30 29 29 31 33 34 34 33 32 32 32 31 30 30 31 32 32 32 34 35 33 32 32 33 32 30 29 28 28 28 28 26 24 24 24 25 25 25 26 26 25 24 24 25 25 24 24 25 24 23
29 29 29 29 30 30 31 31 32 32 33 33 33 34 34 34 34 35 35 36 36 36 36 36 35 35 35 35 36 37 39 39 37 36 36 36 34 32 31 30 30 31 32 34 34 33 33 33 33 31 31 31 31 30 31 32 33 35 34 32 32 32 32 31 31 30 29 27 27 26 26 26 25 24 24 26 27 25 23 23 24 26 25 26 25 25 24 22
28 29 29 29 30 30 31 31 32 33 33 34 34 35 35 35 35 35 35 36 36 36 36 36 36 35 35 35 35 38 38 37 38 39 39 38 36 34 32 32 31 30 31 33 34 34 34 33 33 32 30 31 31 30 29 31 33 33 34 33 32 32 31 31 31 31 30 27 26 25 26 27 25 24 25 27 27 24 22 22 24 26 26 26 26 25 23 21
29 29 30 30 31 31 32 32 33 33 34 35 35 36 36 36 36 36 36 36 36 36 36 36 36 35 35 34 35 37 35 34 37 38 38 37 36 35 34 33 32 31 31 32 33 34 34 33 32 32 30 30 31 31 30 31 32 31 32 34 34 33 32 31 30 30 30 28 27 26 26 26 24 25 26 26 25 23 21 22 24 26 26 26 25 23 22 21
29 30 31 31 32 33 33 34 34 35 35 36 36 36 37 37 37 37 37 37 36 36 36 35 35 35 35 35 36 36 31 31 35 36 37 37 36 36 35 35 34 32 32 32 33 34 34 33 32 31 31 30 30 30 31 32 31 31 31 31 33 33 33 32 31 30 29 28 28 26 26 26 25 25 26 26 24 23 22 22 24 26 25 24 23 22 22 22
31 31 32 33 33 34 35 36 36 37 37 38 38 38 38 39 39 39 38 38 37 37 36 35 35 34 34 35 37 37 33 33 36 38 39 38 37 38 37 36 35 34 33 32 33 33 33 33 33 33 31 30 29 28 29 31 31 32 31 30 30 31 33 33 32 30 29 28 27 25 25 27 27 26 26 26 24 23 23 23 24 24 23 23 23 23 22 22
32 32 33 34 35 36 37 38 38 39 40 40 40 40 40 40 40 40 39 39 38 37 36 35 35 34 34 35 35 36 37 38 39 39 40 39 39 38 37 37 36 35 34 34 34 33 33 33 34 35 33 30 29 29 28 28 29 30 30 30 29 29 31 32 31 31 30 28 27 25 26 29 27 26 26 25 24 24 24 23 23 22 21 21 22 23 23 23
33 34 35 36 37 38 38 39 40 41 41 42 42 42 43 42 42 41 40 40 38 37 36 35 35 34 35 35 33 34 37 38 37 37 38 39 39 39 38 37 36 35 34 35 35 33 33 33 33 34 34 33 30 29 27 26 28 29 29 30 29 29 29 29 29 30 30 29 27 27 28 28 26 24 26 26 25 25 24 24 23 22 21 21 22 22 23 23
34 35 36 37 38 39 39 40 41 41 42 43 43 43 43 44 43 42 41 40 38 37 35 35 34 34 35 35 33 33 33 33 34 35 36 38 38 38 38 37 36 35 34 35 35 34 33 33 34 33 33 33 31 30 28 26 27 28 29 29 29 30 28 27 29 29 29 28 27 28 28 27 26 25 25 25 25 26 25 24 23 23 23 22 22 23 23 23
35 36 37 37 38 38 39 39 40 41 43 43 43 43 43 43 43 42 41 39 38 36 34 34 34 33 34 32 30 31 30 31 32 33 34 36 36 36 37 37 36 35 34 35 34 34 34 33 33 33 32 32 31 30 28 28 28 28 30 29 28 29 28 26 27 28 29 27 28 30 27 25 25 25 26 25 24 25 24 23 24 24 24 23 23 23 23 24
36 36 36 36 37 37 38 39 41 42 42 42 42 42 41 41 41 40 38 37 36 35 34 33 33 33 34 32 31 31 29 29 30 31 33 34 35 35 36 37 36 35 34 34 35 34 34 34 33 33 32 32 31 29 29 32 31 29 28 28 27 27 27 26 25 26 27 27 28 29 28 26 25 25 26 25 25 24 23 23 24 24 24 24 23 23 24 24
36 35 35 35 36 37 39 40 42 42 41 40 38 37 36 34 33 32 31 32 31 32 33 33 33 32 32 31 31 30 29 29 30 31 33 34 34 35 36 36 36 35 34 33 35 35 34 33 32 32 33 33 33 33 33 32 31 29 27 28 27 25 26 27 26 25 25 27 27 27 27 27 26 24 24 25 25 24 23 23 25 25 25 24 24 24 25 25
35 34 34 35 36 37 39 41 42 41 39 36 33 32 29 26 25 24 25 26 28 29 30 31 32 32 31 29 30 31 30 31 32 32 34 34 33 34 35 36 35 35 34 33 34 35 34 32 33 34 35 36 35 35 34 29 28 29 27 26 27 26 25 25 25 25 24 25 26 26 25 26 26 25 25 25 24 23 22 24 25 25 25 25 24 25 25 25
33 33 34 35 36 37 39 40 40 38 35 32 28 26 22 21 21 22 23 25 27 29 30 31 33 35 34 33 33 33 32 32 31 32 33 33 32 34 35 36 35 35 35 34 34 35 35 34 36 36 35 36 35 34 33 29 26 27 26 25 26 26 25 24 24 24 23 23 24 25 24 25 26 26 26 26 24 22 22 24 25 25 25 25 25 25 25 24
33 33 34 35 35 36 38 39 38 35 33 28 23 21 19 18 19 20 22 25 27 29 31 32 34 36 36 35 34 33 31 31 32 33 34 34 34 34 35 36 35 36 36 35 33 34 35 37 38 36 34 33 34 33 32 31 29 26 25 25 25 25 26 24 23 23 22 22 23 23 23 24 25 25 26 26 25 25 25 25 26 26 25 25 25 26 25 22
32 33 33 34 34 35 37 37 36 35 31 25 21 19 17 17 17 18 20 23 24 26 30 31 33 35 36 35 35 34 32 32 32 33 33 34 35 35 35 36 36 35 35 35 34 34 36 38 37 34 32 32 32 32 32 32 31 28 26 24 24 24 24 24 23 22 21 22 22 22 22 23 24 24 24 25 25 26 27 28 27 27 26 25 26 26 23 21
32 32 32 33 33 34 35 35 35 33 29 25 22 18 16 16 16 17 18 20 22 23 26 29 31 33 33 33 33 34 34 32 31 33 34 33 35 36 35 36 36 35 35 37 37 36 36 36 35 33 32 32 32 32 32 32 31 30 28 26 25 23 22 22 23 22 22 21 21 21 21 22 23 22 23 24 25 25 27 28 27 28 28 27 28 26 24 23
31 32 32 32 33 33 34 34 33 29 27 26 23 18 15 15 15 15 16 17 18 19 22 25 26 28 29 29 28 32 34 32 32 34 34 33 34 35 35 36 36 36 37 38 37 37 35 32 33 34 32 32 32 32 32 32 31 30 29 27 25 23 22 22 21 21 22 21 20 19 19 22 23 23 23 23 23 24 26 26 26 27 28 27 27 26 24 23
31 31 31 31 31 32 33 32 29 27 27 26 22 18 17 15 13 13 13 14 14 16 18 19 21 23 24 25 26 29 31 31 33 34 33 33 33 34 34 35 36 37 37 36 36 36 35 32 32 34 34 33 33 32 33 32 30 30 30 28 26 24 23 22 20 19 20 22 22 20 19 21 23 24 24 23 22 23 24 25 26 26 26 25 25 25 24 23
31 31 31 31 31 31 30 27 26 26 26 24 21 20 18 15 12 10 10 10 10 11 12 13 16 19 20 22 24 26 27 28 32 35 34 34 33 32 33 34 35 36 36 35 34 34 35 33 32 34 35 34 33 32 32 32 30 29 29 29 26 24 23 22 20 19 20 21 22 21 21 20 21 23 24 23 23 24 24 24 25 25 25 25 25 25 24 22
31 30 30 30 30 30 27 25 25 25 24 22 21 21 18 15 12 10 9 6 5 5 7 9 12 15 17 20 21 23 23 22 27 34 36 35 33 32 33 33 34 35 34 34 33 33 35 35 33 33 35 34 34 32 31 31 30 29 28 28 27 25 23 22 21 20 20 20 20 21 21 20 22 23 23 23 24 24 24 23 23 23 25 25 24 23 22 21
30 30 29 29 29 28 25 23 23 23 21 20 21 20 18 15 12 10 9 4 4 3 4 6 8 11 14 18 21 23 22 19 23 31 34 35 33 32 32 33 33 33 34 36 34 31 33 36 34 33 34 34 34 32 30 30 29 28 26 26 26 25 24 22 21 21 20 19 21 22 21 20 22 22 21 22 24 24 24 24 22 22 25 25 23 22 21 20
30 29 29 28 27 26 23 22 21 21 20 19 20 19 17 14 11 10 8 4 5 5 4 5 5 9 12 15 21 23 23 20 21 27 31 34 34 32 31 31 32 32 34 36 34 29 30 35 34 31 33 33 32 30 29 30 28 26 24 24 24 24 22 21 21 21 20 21 24 24 22 20 20 21 21 22 24 24 23 22 22 23 24 23 21 21 21 20
29 29 28 27 25 24 22 21 20 19 19 19 19 18 16 13 11 10 7 5 8 7 6 7 7 9 11 13 18 21 23 22 22 25 29 31 32 33 30 30 30 31 32 34 34 30 28 31 33 31 31 30 30 29 29 29 27 25 24 23 23 22 21 20 20 19 20 22 24 25 23 20 19 20 22 22 23 23 22 21 21 22 22 21 20 21 21 20
29 28 27 25 23 22 20 20 19 18 18 18 18 17 15 13 10 9 8 8 9 9 8 9 9 10 10 12 15 19 22 23 22 25 28 30 31 32 31 30 30 30 31 32 34 32 27 28 31 31 31 29 28 29 29 28 27 24 24 24 23 21 20 20 20 20 21 22 22 23 23 21 21 21 21 22 22 21 21 21 21 21 21 20 20 20 21 20
29 28 26 23 21 20 19 19 18 17 17 17 17 17 15 13 10 8 10 11 10 10 10 10 9 9 9 11 14 18 21 22 23 25 27 28 30 32 32 31 30 30 32 34 34 32 29 28 29 30 31 31 29 29 29 28 28 26 25 26 24 21 20 21 21 21 22 21 21 22 21 21 22 22 22 22 22 22 21 21 21 21 20 20 20 21 21 20
29 27 23 20 19 18 18 18 17 17 17 17 17 17 14 12 9 9 11 11 9 10 11 10 9 8 8 10 14 18 20 21 23 25 25 27 28 31 31 31 31 29 30 33 33 32 29 28 29 30 30 32 31 30 31 31 31 30 28 28 27 23 22 23 21 20 20 20 21 21 20 20 20 20 22 23 23 23 21 20 18 18 18 19 20 21 20 20
28 25 21 18 17 17 17 17 16 16 17 17 17 16 14 12 10 10 12 11 10 12 11 10 9 4 6 10 13 17 20 19 22 24 25 25 27 30 31 32 32 29 27 31 32 31 29 27 30 32 29 31 33 30 30 30 30 31 28 27 27 25 23 21 20 20 19 19 20 20 19 19 19 18 20 21 21 20 19 17 15 14 16 18 19 20 20 20
27 22 19 17 16 16 16 15 15 15 16 17 17 15 13 12 12 12 13 12 11 12 11 10 7 2 4 8 12 16 18 19 22 24 23 24 26 28 30 31 32 30 28 30 31 30 29 26 28 31 29 30 32 29 28 28 28 29 28 26 28 27 23 18 18 20 19 18 19 20 20 19 18 17 16 17 18 17 16 16 15 15 17 19 20 21 21 20
24 21 18 16 15 15 15 14 14 14 15 16 16 15 13 13 13 12 12 13 12 12 12 9 5 2 3 6 11 15 16 17 22 23 21 23 25 27 29 29 30 31 29 29 29 28 28 25 24 29 29 28 30 29 28 29 28 28 29 29 28 27 24 19 16 16 16 18 19 19 19 18 17 16 16 15 16 17 16 16 16 17 18 19 20 21 21 20
22 20 17 15 15 15 14 13 14 13 14 16 16 16 15 14 14 12 12 13 11 11 10 7 3 2 3 6 11 14 14 14 20 22 19 21 23 26 29 28 29 31 29 27 27 26 25 24 23 28 31 28 28 29 28 28 27 27 30 30 26 23 23 20 17 14 14 17 18 18 19 18 17 16 16 16 17 17 17 16 15 17 19 20 20 20 20 20
21 19 16 15 15 14 13 13 13 13 15 16 17 17 16 14 13 11 12 12 10 8 8 5 3 2 4 8 10 12 12 13 18 20 19 20 21 24 29 28 28 30 28 25 26 24 22 22 22 26 30 28 26 27 27 27 27 26 28 29 26 24 23 22 19 16 15 17 16 16 17 18 18 18 17 18 19 19 17 16 15 17 19 20 20 20 20 20
20 17 15 16 16 14 13 12 13 14 15 16 18 18 16 15 13 11 10 10 9 7 6 5 2 3 7 9 10 10 11 13 16 18 18 19 19 22 27 28 27 29 28 25 25 23 21 20 21 24 28 27 25 27 29 29 28 25 25 27 26 23 23 23 21 17 16 16 16 15 15 17 18 18 19 21 21 20 19 17 16 17 19 20 20 20 20 20
19 15 14 16 16 14 13 12 13 14 15 16 17 18 17 15 13 11 10 9 8 7 5 4 3 6 9 9 9 9 10 11 14 16 17 19 19 20 25 28 27 27 27 26 24 23 20 19 20 22 25 26 27 29 29 30 30 28 27 28 28 25 21 22 22 19 16 16 16 15 15 16 17 16 18 20 20 20 20 19 17 17 18 19 19 20 21 21
19 15 14 16 17 14 13 12 13 13 14 15 16 17 17 16 13 12 11 9 8 6 5 4 5 8 9 8 8 8 9 10 14 15 15 18 19 19 23 29 28 25 26 26 24 22 20 17 18 21 25 27 28 27 27 28 29 29 27 27 29 27 22 20 21 20 17 16 16 16 15 16 16 14 15 17 18 18 19 18 17 18 19 19 20 20 21 21
18 15 15 17 17 13 12 13 13 13 14 15 16 16 17 16 14 13 12 10 8 6 5 6 7 8 9 8 6 7 9 10 13 14 14 16 18 18 22 29 29 25 25 25 23 21 19 17 16 20 25 26 25 24 25 26 26 26 26 25 26 27 24 21 21 21 18 16 15 16 15 16 16 15 14 14 15 15 16 16 16 17 19 19 19 20 20 20
18 16 16 17 16 13 13 13 13 13 13 14 16 15 15 14 13 13 11 10 9 7 6 7 8 8 8 6 4 6 8 10 12 14 14 14 16 17 22 28 29 26 23 23 22 21 19 17 16 18 22 22 20 20 22 24 24 25 26 24 24 27 26 23 21 19 19 18 15 15 15 16 16 16 14 14 14 14 15 16 16 16 18 19 19 19 19 20
19 17 16 16 15 14 14 13 13 14 14 15 16 15 14 12 11 12 11 10 9 7 7 8 8 8 6 4 3 6 8 10 11 12 13 13 14 17 22 27 29 26 24 22 21 21 20 17 16 18 20 20 19 19 21 24 26 26 26 25 23 25 26 24 21 17 17 19 17 15 16 16 16 15 14 15 15 15 15 15 17 18 19 19 18 18 19 20
19 17 16 16 14 13 13 13 13 13 14 16 15 14 14 12 11 10 10 10 9 7 6 6 6 5 4 3 4 7 8 10 11 11 12 13 14 17 22 27 29 27 25 23 20 19 18 16 16 18 21 22 22 23 25 27 27 25 25 26 24 23 25 26 23 18 17 17 17 17 16 16 15 14 13 15 15 15 15 16 17 19 20 19 19 19 20 20
18 17 17 16 13 12 13 13 13 13 14 15 14 13 14 13 12 11 10 10 9 7 5 4 4 3 3 3 5 7 8 10 11 10 10 12 14 17 20 25 29 28 26 24 20 18 16 15 16 18 21 23 22 23 25 26 26 23 23 25 25 23 23 24 24 21 18 16 16 18 17 16 16 15 15 16 16 16 16 16 18 19 20 19 19 19 19 19
17 16 17 16 13 12 13 13 13 13 14 14 13 12 13 13 12 11 10 10 9 7 5 4 3 3 3 4 6 8 7 8 10 10 9 12 15 18 20 24 28 28 26 23 20 18 15 14 15 17 20 22 21 20 23 25 25 24 23 23 24 23 21 21 23 22 19 16 15 16 16 17 17 17 17 18 17 17 17 17 19 20 20 19 19 19 19 19
17 16 17 16 14 12 12 13 14 14 14 14 12 12 13 12 12 12 10 9 9 7 5 5 4 4 4 4 6 7 6 8 9 8 10 13 15 17 20 24 26 26 25 21 19 17 15 14 15 16 18 20 20 19 20 23 24 24 23 23 23 23 22 22 23 22 20 18 17 15 15 16 17 17 18 18 17 18 18 18 19 20 20 20 19 19 19 19
17 16 16 16 14 12 12 12 13 13 13 14 12 11 13 13 13 12 10 9 9 7 6 6 4 3 3 4 6 7 7 9 8 7 10 14 16 18 21 23 23 23 22 20 17 16 14 14 15 16 16 16 17 19 20 21 22 23 23 23 23 23 23 22 22 22 19 18 18 16 14 14 15 16 17 17 17 17 18 19 20 21 20 20 19 19 18 18
17 16 17 16 14 12 11 11 12 12 12 13 12 11 12 12 12 11 9 8 8 7 6 6 5 2 2 4 6 8 9 9 7 6 11 14 16 19 21 22 22 21 20 18 15 15 15 14 15 16 15 13 14 17 19 19 20 21 21 22 22 22 21 20 20 20 18 17 17 15 13 13 15 14 14 15 17 18 19 20 20 21 21 20 19 18 18 18
17 17 18 16 14 13 11 10 11 11 11 12 11 11 11 10 10 10 8 6 6 6 6 7 6 2 2 4 6 8 9 8 6 6 11 15 17 20 21 22 21 18 18 17 14 13 15 14 14 15 15 13 13 16 17 18 18 19 20 21 23 23 21 20 20 20 19 18 16 15 14 14 14 13 12 14 16 18 19 20 20 21 21 21 20 19 19 19
17 17 17 16 14 12 11 10 10 10 11 11 11 11 10 9 9 9 8 6 6 6 7 8 6 1 2 3 6 7 7 6 4 6 11 15 18 21 22 22 21 17 17 16 13 12 14 15 15 16 16 14 13 14 17 17 16 17 20 22 23 22 21 20 18 19 19 18 16 16 17 16 14 14 14 14 16 17 20 21 21 21 21 21 20 20 20 20
Wind_Direction
293 291 289 287 286 284 283 281 280 279 277 276 274 273 271 270 269 267 266 265 264 264 263 262 262 261 261 260 260 259 259 257 256 255 252 250 249 248 246 244 243 241 240 240 240 241 241 239 238 237 235 235 235 235 235 235 236 236 238 239 240 240 240 240 241 243 245 246 245 242 241 242 245 245 246 248 246 247 244 247 251 246 249 250 242 233 223 222
295 294 292 290 288 286 284 282 281 279 278 277 275 273 272 271 270 268 267 266 265 264 262 262 261 261 261 260 260 260 259 257 256 254 250 248 247 247 246 244 242 240 238 238 239 238 238 237 237 236 234 234 235 234 233 234 234 235 238 239 241 241 242 242 242 245 245 245 245 244 242 241 243 243 245 245 245 246 244 248 251 247 246 243 238 232 226 224
298 297 295 293 291 289 287 285 283 281 279 278 276 275 273 272 270 269 268 267 266 264 263 262 261 261 260 260 260 259 258 257 255 251 245 244 246 247 248 245 240 238 236 236 236 236 236 236 236 235 234 234 234 232 232 233 233 235 237 240 242 242 244 244 242 242 244 245 245 245 244 243 243 243 242 242 244 245 242 243 245 242 238 235 234 230 226 226
300 298 296 295 293 291 289 288 285 283 282 279 278 276 274 273 271 270 268 267 266 265 264 262 261 260 259 259 259 258 257 255 251 244 240 242 246 248 249 246 239 236 235 234 235 235 235 236 236 235 234 235 234 233 232 232 233 235 236 240 243 241 243 244 241 242 244 245 245 246 245 244 244 242 240 240 244 246 243 240 239 237 233 230 229 228 227 228
302 300 298 296 295 293 291 289 287 286 284 281 280 278 276 274 272 271 269 268 267 265 264 262 261 259 259 258 257 256 254 251 246 238 238 243 247 248 248 246 239 235 234 234 234 234 235 235 235 234 234 234 234 233 233 232 233 237 238 241 243 240 241 242 241 242 243 244 245 245 244 244 243 240 238 238 240 241 243 241 237 232 229 227 226 227 229 229
304 303 301 298 297 295 293 291 289 287 285 283 281 279 277 275 273 272 270 268 267 266 265 263 261 259 258 257 255 253 248 246 243 238 239 244 248 249 247 245 239 235 235 235 234 234 234 234 234 233 233 234 233 233 234 232 233 238 240 240 240 239 240 241 239 240 241 242 242 242 243 242 240 238 236 234 236 239 242 242 235 230 228 227 225 226 229 230
307 305 303 301 299 297 295 294 292 290 288 286 283 281 279 277 275 273 270 269 267 266 264 263 262 259 258 256 253 249 245 245 244 239 242 247 250 249 246 244 239 236 236 236 235 233 232 232 232 232 232 233 233 233 234 234 234 237 239 239 238 238 240 241 240 239 239 239 240 241 243 240 235 235 235 234 237 240 244 242 232 228 227 226 225 227 230 231
309 307 304 302 300 299 297 295 294 292 290 288 285 283 281 279 276 274 272 269 267 265 264 262 261 260 258 255 252 249 245 245 244 242 245 249 249 246 244 243 240 238 237 235 234 232 231 231 231 231 232 233 233 233 233 234 235 236 237 238 239 238 239 240 241 241 239 239 240 241 241 239 233 234 237 236 240 242 243 239 228 225 225 226 227 229 232 232
311 309 307 305 303 300 298 296 295 293 291 289 287 285 282 280 277 275 273 270 268 265 263 262 260 259 258 254 251 249 246 245 246 246 247 247 245 243 243 241 240 240 237 235 233 230 230 230 230 230 232 233 234 234 232 231 233 235 235 236 238 239 239 238 238 239 240 239 238 238 240 239 233 234 237 235 238 240 238 232 224 222 224 226 228 229 231 231
314 312 310 308 305 303 301 298 296 294 292 290 288 285 283 280 278 275 273 270 268 266 264 261 259 258 256 253 251 248 248 247 245 244 244 243 242 242 241 239 239 240 237 236 233 230 229 229 230 230 232 234 233 232 231 230 233 235 234 234 236 238 238 238 236 236 237 238 236 234 237 238 231 231 234 233 235 234 230 228 225 223 224 225 226 228 230 229
316 314 312 310 307 305 303 300 298 296 294 291 289 286 283 281 279 276 273 270 268 266 263 260 259 256 254 252 248 247 248 244 242 242 242 241 241 240 239 238 238 238 236 236 234 231 229 229 229 228 230 231 231 233 233 231 234 237 237 236 235 236 236 235 235 234 233 235 234 231 235 237 229 229 232 231 232 229 224 225 225 225 225 225 225 228 230 231
317 315 313 311 309 306 304 302 299 297 294 292 289 287 284 281 279 276 273 270 267 265 262 259 257 254 253 251 247 247 246 243 243 244 242 241 240 238 238 237 236 235 235 234 233 231 230 229 227 227 228 229 228 230 233 232 233 235 235 236 236 235 235 233 232 232 230 232 231 229 237 237 230 230 230 229 229 227 224 223 224 225 225 225 225 227 229 231
317 316 314 312 310 307 305 303 300 298 295 292 290 288 285 282 278 275 273 270 266 263 261 258 256 253 252 251 248 248 247 246 247 246 243 241 239 237 236 235 234 233 233 233 231 230 229 228 226 226 227 228 227 228 232 233 232 233 232 232 234 235 235 231 229 229 229 230 227 226 237 236 231 230 230 229 226 224 224 223 223 225 224 223 223 224 227 230
318 316 315 313 311 309 307 305 302 299 296 293 291 288 285 282 278 275 272 269 265 261 258 256 254 252 250 249 251 251 249 246 244 243 241 238 237 236 235 233 232 231 231 230 229 228 227 227 225 225 226 227 228 231 234 233 231 230 230 230 230 232 234 229 226 226 227 229 222 224 237 236 231 231 230 228 224 220 221 222 223 223 223 224 225 225 227 231
319 318 316 315 314 312 310 307 304 301 298 295 292 289 285 281 277 274 271 268 264 259 256 254 252 250 250 251 252 251 247 242 240 240 239 236 235 234 232 230 229 228 228 228 227 226 225 224 223 222 224 225 225 229 230 230 229 227 227 230 228 230 234 230 226 224 224 226 219 222 236 237 231 230 229 227 224 221 219 221 223 222 223 224 226 228 229 234
321 320 319 318 317 315 313 311 308 304 301 298 294 290 285 281 277 273 269 265 261 257 253 252 249 248 248 249 249 247 244 240 239 239 236 234 232 230 229 228 227 226 226 225 224 223 222 222 222 221 221 221 220 222 225 228 228 226 225 227 227 228 231 231 229 225 221 223 221 223 233 236 231 228 227 226 225 224 221 222 223 222 223 224 227 230 232 236
324 324 323 322 321 320 318 316 313 309 305 301 296 291 286 281 277 272 266 260 256 253 251 250 249 247 246 247 247 247 244 240 239 239 236 233 230 229 227 226 224 223 224 223 221 221 220 219 220 219 219 219 218 217 221 225 224 224 224 225 227 226 226 228 230 227 220 221 223 225 231 234 232 228 226 225 224 224 222 222 224 224 226 227 228 231 232 235
327 326 326 326 325 325 324 322 318 313 309 305 300 294 287 280 275 269 262 255 251 250 250 249 247 246 246 244 244 244 243 242 243 241 237 232 229 227 224 222 221 220 220 220 219 217 217 218 218 218 218 217 217 215 219 223 220 221 222 223 225 227 226 225 227 226 220 221 224 225 230 233 233 232 229 227 224 222 221 221 223 225 226 227 229 230 233 234
329 329 329 329 329 329 328 327 323 318 313 308 304 299 290 280 273 266 259 253 249 248 248 246 242 243 245 242 242 245 246 246 245 240 235 229 226 223 220 219 218 217 216 217 216 214 214 216 217 217 217 216 216 216 219 223 219 217 221 223 223 225 228 226 225 226 220 221 226 225 229 232 231 231 230 229 226 223 222 221 223 226 227 228 230 231 232 232
331 331 331 331 332 332 332 331 329 325 321 313 307 303 295 284 275 266 260 256 251 249 249 246 242 242 247 248 248 249 248 244 240 235 230 226 222 219 217 216 215 215 215 214 214 213 212 216 218 217 217 215 216 216 218 223 221 217 221 224 223 224 228 227 226 227 221 221 228 225 226 230 230 229 229 228 225 223 224 222 223 226 228 230 230 230 230 230
332 333 333 334 334 335 335 335 334 334 330 322 312 305 299 290 279 270 266 260 254 251 250 249 245 243 245 248 249 248 245 240 237 233 229 225 220 217 215 212 212 214 213 213 214 213 213 217 219 217 217 215 215 215 216 221 222 219 221 223 225 224 226 227 224 226 222 222 229 225 223 229 230 228 229 227 225 225 223 221 222 225 228 230 229 228 229 230
333 334 334 336 336 337 338 338 339 339 339 336 326 312 300 293 285 278 271 263 256 252 250 250 247 245 245 246 247 244 240 236 237 233 225 220 217 214 213 211 212 212 211 211 213 213 215 218 217 215 215 214 214 215 215 218 220 221 220 221 224 224 225 227 225 224 220 222 229 225 223 229 230 229 229 226 226 227 224 221 221 221 226 230 228 227 228 228
334 335 336 337 338 339 339 339 341 344 346 346 337 324 309 298 292 286 276 267 261 255 251 247 245 244 244 245 244 239 235 231 232 230 221 217 215 212 211 211 211 211 209 211 212 212 216 219 215 212 214 213 214 214 214 217 219 219 219 219 222 222 221 223 224 223 219 220 224 222 226 231 229 229 228 227 228 228 226 226 225 222 223 226 225 226 225 224
334 336 336 337 338 340 340 340 343 347 350 348 342 335 324 311 301 294 283 272 265 258 252 247 243 242 242 242 238 232 230 227 226 225 219 215 213 211 211 210 210 210 210 211 212 213 217 218 212 211 213 212 214 214 212 215 218 219 219 218 219 219 219 220 223 224 221 222 222 219 229 235 229 227 228 228 229 227 227 228 228 227 226 225 225 226 225 224
335 335 336 337 338 340 340 342 345 348 349 349 349 346 339 328 315 304 295 282 270 261 254 248 243 241 239 238 233 228 228 226 222 220 217 213 211 211 210 209 209 211 210 209 211 214 217 217 210 209 213 212 213 214 213 213 216 219 219 217 216 216 218 221 223 222 221 225 225 219 227 234 230 227 227 227 227 226 226 225 225 226 226 226 225 225 225 225
334 335 336 336 337 339 340 343 346 347 348 351 354 352 347 343 334 323 312 293 279 265 252 248 243 239 238 234 229 226 227 227 221 217 215 213 211 210 208 208 209 211 208 207 212 214 215 215 211 209 211 211 213 215 213 211 213 219 218 214 214 214 216 219 220 218 218 223 225 220 223 231 233 230 226 224 224 224 225 225 226 226 225 225 225 224 224 224
334 335 336 336 337 339 340 341 344 347 349 352 354 353 352 354 352 348 343 319 298 277 253 256 246 236 238 232 224 220 222 225 217 211 211 211 209 208 207 207 208 209 207 206 211 213 210 211 211 209 208 210 212 213 212 209 211 218 215 210 212 214 215 216 216 218 220 224 226 221 221 228 234 232 228 224 223 225 226 227 228 228 227 226 225 225 223 221
335 335 335 336 338 339 338 340 342 346 349 350 352 352 352 354 357 1 4 356 333 310 278 280 248 235 246 234 218 215 218 218 211 207 206 205 205 204 204 207 207 206 205 206 210 211 208 209 209 207 208 210 211 210 209 207 210 215 211 207 209 211 213 214 216 221 224 226 228 225 222 227 233 232 229 226 224 226 227 226 227 228 227 226 224 223 221 219
335 335 335 336 338 339 340 342 343 345 347 349 351 353 353 354 357 3 5 356 343 327 302 305 258 248 260 234 215 216 216 211 207 204 200 200 203 202 203 206 206 205 205 206 209 209 208 209 207 206 209 210 209 208 207 206 210 212 206 206 208 209 211 213 216 220 222 224 226 225 221 226 234 231 225 226 227 226 225 225 226 227 227 225 222 219 217 217
335 335 335 337 339 341 344 345 345 346 347 348 350 353 355 356 359 1 356 344 344 335 311 303 281 272 266 233 215 213 210 206 204 200 196 197 199 201 203 203 204 204 204 205 208 210 209 207 206 207 209 208 206 207 207 206 208 207 204 205 207 210 211 212 214 215 217 223 225 223 220 223 233 232 224 224 226 223 221 224 227 228 227 222 218 215 213 212
335 334 335 337 339 342 345 346 347 348 349 349 352 354 353 354 360 2 353 342 337 332 321 303 287 280 261 230 213 205 201 202 200 197 196 196 196 198 200 200 201 200 201 203 205 209 209 205 206 207 206 204 204 206 207 206 205 204 202 202 206 211 212 213 215 215 218 223 223 221 219 222 229 231 227 224 225 222 219 220 223 225 223 217 213 211 208 207
335 334 334 336 337 340 343 346 349 351 352 353 355 356 354 351 352 349 344 342 339 335 330 316 299 285 255 225 208 199 197 198 196 195 196 195 196 197 197 197 197 195 199 201 200 205 207 205 205 205 203 201 201 203 205 205 204 202 200 199 202 206 207 211 213 214 219 222 221 217 218 224 231 233 229 223 222 221 219 218 218 218 215 209 206 204 203 205
335 334 334 335 338 340 341 344 347 350 353 354 355 355 355 350 344 339 338 338 340 341 336 327 314 290 244 214 199 194 193 194 193 192 194 194 195 197 197 197 197 196 198 198 197 200 203 205 205 203 202 201 200 201 202 203 202 201 200 199 200 201 204 210 212 215 221 222 220 217 219 229 234 234 228 220 217 216 216 217 217 216 211 203 200 199 202 205
337 337 336 336 337 339 340 343 346 350 353 354 354 353 352 347 340 340 340 335 336 342 339 332 326 297 213 196 192 189 188 191 192 190 192 193 194 196 197 197 198 197 196 195 196 198 199 203 204 202 201 199 199 202 201 200 201 201 200 199 202 203 203 208 210 212 218 220 218 215 218 226 227 229 226 218 215 212 211 213 212 209 206 200 198 198 200 203
339 340 339 338 340 341 341 343 346 349 354 356 354 352 349 346 341 340 343 341 340 342 340 336 337 352 169 182 187 186 185 189 191 190 190 193 194 195 196 196 196 196 194 193 196 197 198 205 205 201 200 197 198 201 199 197 199 201 199 200 205 205 203 207 209 210 212 215 217 214 218 225 225 230 229 217 213 209 204 205 201 200 200 197 198 198 199 201
343 344 344 343 345 345 343 345 347 349 353 355 353 349 345 343 341 339 342 345 344 342 341 343 356 58 139 170 177 179 182 185 187 189 191 192 193 194 194 195 194 194 193 192 194 195 197 204 204 198 200 199 196 197 198 197 198 198 200 203 205 203 203 207 211 212 208 210 217 216 221 230 230 231 228 213 208 205 201 201 201 200 199 197 198 200 201 202
346 347 347 346 346 346 346 348 350 351 356 358 352 347 347 344 339 336 338 341 342 341 342 348 12 59 135 164 166 170 179 183 182 186 190 190 193 193 193 194 193 192 192 191 192 193 193 201 202 196 197 200 195 194 198 199 196 196 201 203 201 201 205 208 209 213 209 210 219 218 218 224 222 223 222 209 203 204 201 201 203 203 200 198 200 201 202 203
346 346 348 348 347 348 349 351 353 355 358 359 351 348 351 351 347 344 344 345 346 346 350 354 9 73 142 157 159 167 180 181 179 183 188 189 193 193 191 192 193 192 191 188 190 193 191 196 202 196 195 196 193 192 198 200 197 198 201 201 198 200 205 205 206 210 209 210 218 218 218 220 218 218 216 208 205 205 203 203 203 202 199 198 199 201 201 201
348 350 351 350 349 351 353 354 357 358 358 358 355 355 357 357 357 358 354 352 352 352 357 4 27 122 145 151 154 164 176 178 179 183 186 187 191 192 188 189 191 190 188 184 186 191 190 190 196 195 191 190 191 194 197 198 197 197 199 199 199 200 203 203 204 207 208 209 212 215 218 219 219 218 213 210 209 205 204 205 203 199 197 197 198 198 198 200
353 354 353 352 353 356 358 358 359 359 358 358 358 1 3 2 5 6 358 356 1 2 4 20 78 127 140 148 152 158 166 173 178 183 184 186 189 191 188 187 188 187 184 184 185 188 189 187 190 192 188 189 194 198 197 196 195 196 197 197 198 200 201 202 205 208 208 209 209 209 215 219 218 214 210 210 210 205 203 204 203 199 196 197 198 196 195 198
357 357 354 354 356 358 0 0 359 360 0 360 1 4 6 6 8 8 1 358 3 6 17 59 116 133 137 144 150 156 162 166 175 179 181 184 186 188 187 186 185 183 182 185 187 185 185 185 186 187 188 192 197 198 195 194 195 196 196 196 198 199 197 197 204 209 208 210 210 207 213 220 216 210 207 207 207 206 204 202 202 199 195 195 195 193 192 195
359 357 354 355 357 357 358 358 359 2 2 359 360 359 359 4 10 11 8 7 10 21 52 99 127 134 135 139 141 157 166 167 172 174 174 179 183 185 186 184 182 181 182 184 185 182 182 184 185 188 191 194 197 195 192 192 193 194 197 198 198 199 197 195 200 206 208 211 213 207 212 219 215 210 210 206 201 202 204 202 200 196 193 191 190 189 190 193
359 355 353 356 0 1 1 359 0 4 0 355 355 353 354 5 14 14 15 17 22 39 80 112 129 131 129 126 126 153 164 165 169 171 170 174 178 181 183 181 181 181 180 181 182 181 182 185 187 189 189 190 193 190 189 190 191 193 197 199 198 200 201 198 199 203 206 209 209 206 213 219 216 214 212 203 194 191 196 198 194 191 190 188 187 187 188 189
357 355 355 358 2 3 4 3 360 360 356 353 355 355 358 9 16 15 18 23 29 53 94 118 126 124 114 97 119 148 155 159 165 170 171 172 174 177 179 179 180 180 178 177 178 178 182 184 184 184 181 181 184 185 186 190 192 195 197 198 198 199 199 200 202 204 208 211 207 204 213 217 215 215 210 200 194 191 193 194 191 189 188 187 187 185 184 185
356 358 357 356 360 5 7 5 1 359 355 353 356 358 4 14 19 20 25 27 37 65 101 122 126 122 108 93 131 152 154 155 161 169 172 175 176 176 177 177 179 179 178 177 173 172 178 183 181 182 183 183 186 188 189 189 191 194 195 196 197 195 196 201 204 205 210 213 209 208 213 216 217 216 207 201 200 197 195 193 191 191 190 189 188 185 185 187
359 1 359 357 358 3 5 3 4 3 357 356 0 4 9 16 21 29 35 36 45 65 90 117 131 129 117 105 126 144 150 153 161 168 172 177 177 175 176 176 177 177 178 179 175 172 178 186 184 184 187 188 189 192 192 187 187 190 191 193 196 194 194 198 201 204 208 209 212 215 213 212 217 217 209 205 203 199 198 196 193 193 193 190 189 188 189 192
0 1 1 1 359 359 2 2 6 6 359 359 6 9 11 16 20 30 41 45 50 58 72 97 110 103 96 97 120 137 144 153 162 166 171 176 176 176 177 175 174 177 179 179 177 176 182 191 188 184 188 192 190 189 189 186 186 188 187 189 193 192 192 195 201 206 206 205 216 221 212 209 215 218 215 212 207 201 201 200 195 193 194 192 190 190 191 194
1 360 1 3 359 357 360 360 0 360 356 359 9 13 13 16 19 26 37 44 47 52 64 77 83 86 89 105 132 144 148 154 157 159 167 171 170 170 169 168 171 177 179 176 174 175 181 189 188 181 184 191 192 188 186 185 188 190 189 189 191 191 193 198 203 206 205 207 217 218 212 212 215 217 219 218 214 208 204 199 194 192 192 193 193 193 195 196
1 359 358 0 358 352 350 349 351 354 356 1 9 14 14 14 17 23 31 37 40 51 64 61 54 68 88 120 144 152 153 152 150 152 158 162 164 165 163 165 171 175 175 174 175 177 179 186 186 178 175 184 189 188 184 183 186 191 193 193 193 193 196 200 205 207 206 212 218 214 211 216 217 216 218 217 214 210 203 197 193 192 193 194 195 197 198 198
360 359 357 357 356 351 347 350 355 358 0 5 9 12 12 10 12 19 24 28 35 47 57 45 29 39 103 133 149 158 161 155 151 155 156 157 162 163 163 166 171 173 173 173 176 179 181 184 184 176 172 179 187 185 182 182 185 189 194 196 194 194 197 200 204 207 209 215 218 212 211 221 220 214 211 208 202 200 199 198 196 196 195 196 197 199 199 199
358 358 356 355 357 357 356 359 2 2 6 10 9 8 10 9 9 12 18 28 36 34 30 17 4 5 126 140 154 164 167 163 162 168 165 165 167 166 165 168 169 170 174 175 174 179 182 184 181 173 171 179 185 180 178 180 182 186 193 196 195 195 199 202 204 206 208 211 212 209 213 220 218 209 203 202 198 196 197 197 197 198 197 197 198 198 199 200
356 356 357 358 358 360 0 3 5 6 10 11 6 2 4 3 3 8 17 29 26 5 351 349 347 346 153 158 164 165 169 175 189 185 173 172 176 174 171 173 173 171 173 172 172 179 181 181 180 176 173 180 185 181 178 177 181 190 198 198 196 197 198 201 206 208 207 207 208 211 215 215 210 204 203 203 201 199 199 198 197 198 198 198 199 199 200 203